Grazzanise, Italy

3:45 PM CEST on September 22, 2017 (GMT +0200)
Grazzanise Mil

Weather History for LIRM - December, 2013

Change the Weather History Date:

Sunday, December 1, 2013

  Actual Average (LIRN) Record (LIRN)
Temperature  
Mean Temperature 54 °F -  
Max Temperature 57 °F 57 °F 71 °F (1998)
Min Temperature 51 °F 40 °F 32 °F (2016)
Degree Days  
Heating Degree Days 11    
Growing Degree Days 4 (Base 50)    
Moisture  
Dew Point 49 °F    
Average Humidity 80    
Maximum Humidity 94    
Minimum Humidity 65    
Precipitation  
Precipitation 0.03 in 0.14 in - ()
Sea Level Pressure  
Sea Level Pressure 29.67 in    
Wind  
Wind Speed 18 mph ()    
Max Wind Speed 28 mph    
Max Gust Speed 39 mph    
Visibility 8.2 miles    
Events Rain    
Averages and records for this station are not official NWS values.
T = Trace of Precipitation, MM = Missing Value Source: Averaged Metar Reports

Daily Weather History Graph

Daily Weather History Graph

Search for Another Location

Airport or City:

Trip Planner

Search our weather history database for the weather conditions in past years. The results will help you decide how hot, cold, wet, or windy it might be!

Date:

Astronomy

Dec. 01, 2013 Rise Set
Actual Time 7:09 AM CET 4:36 PM CET
Civil Twilight 6:38 AM CET 5:06 PM CET
Nautical Twilight 6:04 AM CET 5:40 PM CET
Astronomical Twilight 5:31 AM CET 6:13 PM CET
Moon 5:07 AM CET (12/1) 3:32 PM CET (12/1)
Length of Visible Light 10h 27m
Length of Day
9h 26m
Waning Crescent, 3% of the Moon is Illuminated
Dec 1
Waning Crescent
Dec 3
New
Dec 9
First Quarter
Dec 17
Full
Dec 25
Last Quarter

Hourly Weather History & Observations

Time (CET) Temp. Dew Point Humidity Pressure Visibility Wind Dir Wind Speed Gust Speed Precip Events Conditions
12:55 AM 53.6 °F 46.4 °F 77% 29.80 in 6.2 mi ENE 25.3 mph 36.8 mph N/A   Mostly Cloudy
1:00 AM 54 °F 47 °F 68% 29.81 in 12 mi ENE 25.3 mph - -   Scattered Clouds
1:55 AM 53.6 °F 46.4 °F 77% 29.77 in 6.2 mi ENE 27.6 mph 39.1 mph N/A   Mostly Cloudy
2:55 AM 51.8 °F 46.4 °F 82% 29.77 in 6.2 mi ENE 25.3 mph 36.8 mph N/A   Mostly Cloudy
3:55 AM 53.6 °F 48.2 °F 82% 29.74 in 6.2 mi ENE 20.7 mph 32.2 mph N/A   Mostly Cloudy
4:00 AM 54 °F 48 °F 72% 29.75 in 12 mi ENE 20.7 mph - -   Overcast
4:55 AM 53.6 °F 48.2 °F 82% 29.74 in 6.2 mi ENE 20.7 mph - N/A   Mostly Cloudy
5:55 AM 53.6 °F 50.0 °F 88% 29.71 in 6.2 mi ENE 20.7 mph - N/A   Mostly Cloudy
6:55 AM 53.6 °F 50.0 °F 88% 29.68 in 6.2 mi ENE 17.3 mph - N/A   Mostly Cloudy
7:00 AM 54 °F 49 °F 79% 29.69 in 12 mi ENE 17.3 mph - -   Overcast
7:55 AM 53.6 °F 48.2 °F 82% 29.65 in 6.2 mi ENE 15.0 mph - N/A   Mostly Cloudy
8:55 AM 55.4 °F 50.0 °F 82% 29.65 in 6.2 mi ENE 20.7 mph - N/A   Mostly Cloudy
9:55 AM 55.4 °F 48.2 °F 77% 29.65 in 6.2 mi ENE 16.1 mph - N/A   Mostly Cloudy
10:00 AM 55 °F 48 °F 71% 29.66 in 19 mi ENE 16.1 mph - -   Overcast
10:55 AM 55.4 °F 48.2 °F 77% 29.65 in 6.2 mi ENE 17.3 mph - N/A Rain Light Rain
11:55 AM 53.6 °F 46.4 °F 77% 29.65 in 6.2 mi ENE 18.4 mph - N/A   Mostly Cloudy
12:55 PM 53.6 °F 48.2 °F 82% 29.62 in 6.2 mi ENE 12.7 mph - N/A   Mostly Cloudy
1:00 PM 54 °F 48 °F 74% 29.65 in 22 mi ENE 12.7 mph - -   Partly Cloudy
1:55 PM 55.4 °F 50.0 °F 82% 29.62 in 6.2 mi NE 15.0 mph - N/A   Mostly Cloudy
2:55 PM 57.2 °F 48.2 °F 72% 29.59 in 6.2 mi ENE 25.3 mph 36.8 mph N/A   Mostly Cloudy
3:55 PM 57.2 °F 48.2 °F 72% 29.59 in 6.2 mi ENE 24.2 mph - N/A   Mostly Cloudy
4:00 PM 57 °F 49 °F 65% 29.61 in 19 mi ENE 24.2 mph - -   Partly Cloudy
4:55 PM 55.4 °F 50.0 °F 82% 29.62 in 6.2 mi NE 16.1 mph - N/A Rain Light Rain
5:55 PM 53.6 °F 50.0 °F 88% 29.62 in 6.2 mi NNE 6.9 mph - N/A   Mostly Cloudy
6:55 PM 51.8 °F 48.2 °F 88% 29.62 in 6.2 mi NE 10.4 mph - N/A   Mostly Cloudy
7:00 PM 52 °F 49 °F 85% 29.63 in 16 mi NE 10.4 mph - -   Partly Cloudy
7:55 PM 51.8 °F 50.0 °F 94% 29.62 in 6.2 mi ENE 19.6 mph - N/A   Mostly Cloudy
8:55 PM 55.4 °F 51.8 °F 88% 29.62 in 6.2 mi ENE 18.4 mph 31.1 mph N/A   Mostly Cloudy
9:55 PM 55.4 °F 50.0 °F 82% 29.62 in 6.2 mi East 17.3 mph - N/A   Scattered Clouds
10:00 PM 55 °F 49 °F 75% 29.64 in 16 mi East 17.3 mph - -   Scattered Clouds
10:55 PM 57.2 °F 51.8 °F 82% 29.65 in 6.2 mi ENE 19.6 mph - N/A   Scattered Clouds
11:55 PM 57.2 °F 51.8 °F 82% 29.68 in 6.2 mi ENE 16.1 mph - N/A   Scattered Clouds